SCP
1 1 1 1 2 2 2 2 2 1 1 1 0 0 0 0 1 1 1 0 0 0 0 0 0 0 0 0 0 0 0 0 0 0 0 1 1 1
1 1 1 1 2 2 2 2 2 2 1 1 0 0 0 0 1 1 1 1 0 0 0 0 0 0 0 0 0 0 0 0 0 0 0 1 1 1
1 1 1 1 1 1 2 2 2 2 1 1 0 0 1 1 1 1 1 1 1 0 0 0 0 0 0 0 0 0 0 0 0 0 0 0 1 1
1 1 1 1 1 1 1 2 2 2 1 1 1 1 1 1 1 1 1 1 1 0 0 0 0 0 0 0 0 0 0 0 0 0 0 0 0 0
1 1 1 1 1 1 1 2 2 1 1 1 1 1 1 1 2 1 1 1 1 1 0 0 0 0 0 0 0 0 0 0 0 0 0 0 0 0
1 1 1 1 1 1 1 1 1 1 1 1 1 1 1 2 2 1 1 1 1 1 1 1 0 0 0 0 0 0 0 0 0 0 0 0 0 0
2 2 1 1 1 1 1 1 1 1 1 1 1 1 1 2 2 2 1 1 1 1 1 1 1 1 1 1 0 0 0 0 0 0 0 0 0 0
3 2 1 1 1 1 1 1 1 1 1 1 1 1 1 2 2 2 1 1 1 1 1 1 1 1 1 1 1 0 0 0 0 0 0 0 0 0
4 3 2 2 2 1 1 1 1 1 1 1 1 1 1 2 2 2 2 1 1 1 2 1 1 1 1 1 1 1 0 0 0 0 0 0 0 0
5 4 3 2 2 2 2 2 2 1 1 1 1 1 1 2 2 2 2 2 2 2 2 2 2 2 2 2 1 1 0 0 0 0 0 0 0 0
6 4 3 2 2 2 2 3 3 2 2 1 1 1 1 1 1 2 2 2 2 2 3 3 3 3 3 2 2 1 1 0 0 0 0 0 0 0
7 5 3 2 1 1 2 3 3 3 2 2 2 1 1 1 1 2 2 2 3 3 3 4 4 4 4 3 3 2 2 1 0 0 0 0 0 0
8 7 4 2 1 1 1 2 3 2 2 3 3 3 3 2 2 3 3 3 3 3 4 5 5 4 4 3 3 3 3 2 1 1 1 0 0 0
9 8 5 2 1 0 1 1 1 1 2 3 3 3 3 3 4 4 4 4 4 4 5 5 5 5 4 3 3 4 4 3 2 2 1 1 0 0
9 7 4 2 1 1 0 0 1 2 3 3 4 4 4 4 5 5 6 5 5 5 5 5 5 5 4 4 4 4 4 4 3 2 2 1 1 1
8 6 3 2 2 2 2 2 2 3 3 4 4 4 5 6 6 7 7 7 6 6 5 5 5 5 5 5 5 5 5 5 4 3 2 2 1 1
7 6 4 3 3 3 4 4 4 4 4 4 4 5 5 6 7 8 8 8 7 7 6 6 5 5 5 5 5 5 5 6 5 4 3 2 2 1
5 5 5 4 4 3 4 4 4 4 4 5 5 5 6 7 8 8 9 8 8 7 7 7 5 5 4 4 4 4 5 6 6 6 4 3 2 1
5 5 5 4 3 2 3 3 4 5 5 6 5 5 6 7 8 8 8 8 8 8 8 7 6 5 4 4 3 3 4 5 6 6 4 3 2 1
5 5 6 6 4 3 3 4 4 5 6 6 5 4 5 7 8 8 7 6 7 7 7 7 6 5 4 4 4 3 3 4 5 6 5 3 1 1
4 5 6 7 6 4 4 4 5 5 5 5 4 4 5 6 7 8 6 5 5 5 5 5 5 4 4 4 4 4 3 2 4 5 4 2 1 0
4 4 6 7 7 5 4 4 5 4 4 3 4 4 5 6 7 7 6 6 5 5 4 4 4 4 4 4 4 4 3 2 2 2 2 1 1 0
3 4 5 6 7 7 5 4 4 3 3 3 4 4 5 6 6 7 7 6 6 5 4 4 3 3 3 3 4 4 3 1 1 0 0 0 0 0
Wind_Speed
1 2 2 1 2 2 2 1 1 1 1 2 2 2 1 2 2 2 4 7 6 6 6 5 5 5 5 5 5 5 5 5 5 5 5 5 5 5
0 1 1 2 2 2 2 2 1 1 1 2 2 2 2 2 3 2 4 8 7 6 6 6 6 6 6 5 5 5 5 4 5 5 6 6 6 6
1 2 1 1 2 2 2 2 2 2 2 2 2 3 2 1 2 2 3 3 5 7 6 6 6 6 6 5 4 5 5 5 5 5 5 5 5 6
1 1 2 2 2 2 1 2 2 2 3 3 2 2 2 2 1 1 2 2 4 8 7 6 6 5 5 5 4 4 4 5 5 5 4 4 4 4
2 2 2 2 2 2 2 2 2 2 2 3 3 2 2 2 2 2 2 1 3 7 8 7 6 5 5 5 5 4 4 3 4 4 4 3 3 3
2 2 2 2 2 2 2 3 3 3 3 3 3 2 2 2 2 2 2 1 1 2 3 4 6 6 6 4 4 4 3 3 2 2 2 2 2 2
2 2 2 2 2 0 1 2 3 3 3 3 3 3 2 2 2 2 1 1 1 1 2 3 4 4 5 6 5 3 3 2 2 2 2 1 1 1
2 2 3 4 4 3 2 1 1 2 3 3 3 3 3 3 2 2 2 2 2 1 2 1 1 1 2 2 5 4 3 3 2 2 2 1 1 1
3 3 2 3 4 3 4 3 1 1 1 3 3 3 3 3 3 3 2 2 1 1 2 1 1 1 1 4 7 5 4 3 3 3 2 2 1 1
3 3 3 3 2 2 3 3 3 3 3 3 2 2 2 2 3 3 3 3 2 2 2 3 2 2 2 3 8 6 5 4 3 3 3 3 2 2
4 3 3 3 2 2 3 3 3 3 3 2 2 1 2 0 2 3 3 3 3 2 2 3 2 2 2 3 6 8 6 5 5 4 4 4 4 5
5 4 3 3 3 3 4 4 4 3 3 4 3 3 3 3 4 4 3 3 2 2 2 3 3 3 3 3 3 4 5 7 7 7 6 5 4 5
5 4 4 6 4 3 4 3 3 3 3 3 3 3 3 3 4 3 2 3 3 2 1 3 3 3 3 2 2 3 3 3 4 5 7 7 5 5
4 4 4 7 6 4 3 2 2 4 3 3 3 3 3 2 2 2 2 1 2 2 1 2 3 3 3 3 2 2 3 3 2 2 2 6 6 6
2 2 4 7 6 5 5 5 5 5 4 4 3 3 2 2 2 3 3 3 3 3 2 2 3 3 4 4 3 2 3 3 3 3 2 2 3 3
5 5 6 6 5 3 5 6 6 4 4 4 3 3 3 3 3 3 3 3 3 3 3 3 3 4 5 4 4 3 3 2 2 3 3 3 3 3
4 5 5 5 5 5 5 5 5 5 5 5 4 4 4 4 4 3 3 3 3 3 3 4 4 4 4 5 4 3 3 3 2 2 3 4 3 3
6 6 6 6 5 5 5 5 5 5 5 5 5 4 4 4 4 3 4 4 4 4 3 3 3 4 4 3 4 5 4 4 3 3 5 4 4 3
7 6 6 6 6 6 5 5 5 5 4 5 5 5 4 5 4 4 4 4 5 4 4 3 4 4 5 5 4 5 5 4 4 4 4 5 5 3
8 7 6 6 6 6 5 5 5 5 5 5 5 5 5 6 5 5 5 5 5 4 4 4 5 5 5 5 4 4 7 6 4 5 4 5 4 2
7 6 6 6 5 5 5 5 5 5 6 6 5 6 6 6 5 5 5 5 6 5 6 5 3 5 5 5 5 4 3 5 4 5 5 5 5 5
6 6 6 6 5 5 5 5 6 6 6 7 6 6 6 6 6 6 6 5 5 5 6 4 4 5 5 6 6 5 4 3 4 6 6 6 6 5
6 6 6 6 6 5 5 6 8 7 6 6 6 6 6 6 6 6 5 6 6 6 5 5 5 5 6 6 6 5 4 4 4 4 5 7 9 9
Wind_Direction
176 181 205 167 184 183 183 201 219 172 122 114 101 96 94 78 93 101 94 95 96 94 94 95 94 92 88 79 72 69 68 68 70 75 78 76 72 72
145 131 203 184 177 200 201 211 227 200 134 114 127 115 89 106 111 108 108 111 98 101 100 98 96 94 90 83 78 78 75 75 81 81 81 79 75 73
171 164 189 212 204 210 200 199 200 178 158 135 127 126 125 122 119 130 135 134 110 106 103 101 102 99 97 93 88 85 82 82 83 85 86 86 82 76
175 185 197 188 188 219 215 198 169 170 174 156 148 147 147 158 141 158 136 127 115 112 115 110 105 102 98 95 91 86 85 85 86 87 88 91 88 81
184 195 195 184 199 192 206 189 177 177 170 172 171 150 159 163 158 141 112 132 137 135 138 131 120 115 109 106 103 97 92 92 91 87 84 89 89 82
174 185 195 195 197 197 197 190 187 180 172 181 172 169 168 170 188 174 158 159 160 143 132 142 143 148 139 131 120 114 114 113 111 105 99 97 94 83
153 161 153 116 72 33 243 192 185 190 183 180 178 179 176 182 205 203 176 173 160 185 178 168 167 169 159 158 144 129 133 142 143 137 129 134 131 110
168 161 150 140 122 111 63 37 334 206 194 192 193 192 190 201 208 211 200 203 198 195 225 189 176 167 146 123 120 134 146 155 158 154 152 159 166 176
184 184 184 143 159 160 150 161 145 28 232 229 210 214 202 199 208 209 211 236 254 213 236 228 204 201 163 115 128 143 149 155 160 168 173 178 188 195
189 184 179 175 163 177 178 167 170 167 193 208 210 223 212 205 214 221 213 215 213 213 236 249 224 217 187 142 147 160 167 170 172 177 187 197 207 219
186 183 185 166 131 198 179 171 166 159 128 105 76 84 63 44 254 225 212 219 217 200 208 244 244 239 216 183 158 172 181 182 186 194 202 211 223 225
176 171 157 167 164 200 192 185 189 181 168 159 158 171 183 178 205 237 238 238 242 225 187 239 239 237 223 201 173 177 192 192 199 203 205 216 236 252
187 183 161 152 168 199 224 207 201 204 192 187 183 184 189 191 200 208 239 257 260 256 191 218 244 241 245 228 202 206 210 199 202 203 205 207 220 257
202 189 150 148 166 189 200 169 186 223 210 203 196 198 202 200 192 200 207 254 281 282 288 265 258 256 256 251 232 208 221 223 225 225 214 190 210 224
209 119 135 155 172 184 186 187 202 217 213 214 213 207 208 198 193 192 194 206 226 237 213 252 271 262 262 265 263 239 232 224 224 244 243 233 230 221
199 154 158 172 192 184 178 195 216 225 225 218 220 212 205 202 209 210 210 209 218 203 193 224 260 270 263 266 268 264 254 241 233 243 253 246 237 239
181 189 190 186 194 196 199 202 208 208 214 222 219 213 214 217 212 211 225 228 234 228 207 208 214 232 256 272 267 264 264 259 244 230 249 251 238 232
195 203 204 205 208 209 207 206 211 215 216 219 220 220 221 221 218 215 220 233 238 239 233 227 227 222 228 227 258 270 266 265 255 230 245 251 247 236
206 214 212 212 215 217 214 213 215 218 223 223 222 224 224 228 226 223 227 233 240 237 234 232 234 242 250 247 218 236 264 271 265 246 247 258 258 254
221 223 218 216 218 218 218 219 219 217 217 226 227 228 226 227 226 227 228 236 239 241 239 232 234 243 258 272 270 231 223 256 265 264 259 263 264 246
219 225 225 221 219 218 220 220 219 220 222 227 226 229 232 233 231 231 228 222 241 242 242 237 231 240 255 261 260 246 221 213 256 269 270 264 257 244
219 222 228 229 222 218 219 218 219 222 223 227 226 225 228 233 233 234 234 228 232 243 247 241 216 227 240 250 258 253 247 230 222 231 260 265 274 273
219 222 225 228 224 219 222 224 227 227 226 230 230 228 229 229 233 233 232 236 237 239 241 237 229 231 240 245 253 259 252 247 240 225 238 227 228 235